CW8264 Weather Reports


Display with metric or nautical units.
time (UTC)temp
F
wind
direction
speed
MPH
gust
MPH
rain 1hr
in
rain 24hr
in
rain mn
in
humidity
%
barometer
mb
20260509200907 67 174 3.0 7.0 0.00 0.15 0.15 58 981.9
20260509200408 68 158 7.0 7.0 0.00 0.15 0.15 55 982.0
20260509195408 68 310 6.0 12.0 0.00 0.15 0.15 57 982.0
20260509194907 68 151 7.0 10.0 0.00 0.15 0.15 56 982.1
20260509193907 67 265 5.0 9.0 0.00 0.15 0.15 58 982.4
20260509193407 67 248 5.0 9.0 0.00 0.15 0.15 59 982.4
20260509192907 66 180 5.0 9.0 0.00 0.15 0.15 62 982.4
20260509192407 66 212 5.0 7.0 0.00 0.15 0.15 60 982.6
20260509191407 67 238 5.0 7.0 0.00 0.15 0.15 60 982.8
20260509190907 66 121 4.0 8.0 0.00 0.15 0.15 62 982.8
20260509190408 65 175 5.0 13.0 0.00 0.15 0.15 62 982.8
20260509185407 65 161 5.0 8.0 0.00 0.15 0.15 64 982.9
20260509184908 64 256 6.0 9.0 0.00 0.15 0.15 66 982.8
20260509184406 65 154 5.0 8.0 0.00 0.15 0.15 64 982.8
20260509183907 65 152 3.0 7.0 0.00 0.15 0.15 65 982.9
20260509183407 64 154 4.0 6.0 0.00 0.15 0.15 67 982.9
20260509182907 62 208 4.0 6.0 0.00 0.15 0.15 70 982.9
20260509181907 62 225 4.0 6.0 0.00 0.15 0.15 70 983.1
20260509181406 62 245 5.0 6.0 0.00 0.15 0.15 70 983.2
20260509180907 61 170 5.0 6.0 0.00 0.15 0.15 72 983.2
20260509180407 61 192 3.0 5.0 0.00 0.15 0.15 73 983.1
20260509175907 61 109 3.0 6.0 0.00 0.15 0.15 75 983.0
20260509175407 60 129 3.0 6.0 0.00 0.15 0.15 75 983.0
20260509174907 60 225 3.0 6.0 0.00 0.15 0.15 74 983.1
20260509173906 60 224 3.0 7.0 0.00 0.15 0.15 75 983.0
20260509173407 60 100 3.0 6.0 0.00 0.15 0.15 76 983.0
20260509172407 59 320 6.0 8.0 0.00 0.15 0.15 75 982.9
20260509171906 60 176 5.0 7.0 0.00 0.15 0.15 75 982.9
20260509171407 60 146 5.0 10.0 0.00 0.15 0.15 74 982.8
20260509170906 61 158 3.0 6.0 0.00 0.15 0.15 74 982.8
20260509170406 60 102 5.0 6.0 0.00 0.15 0.15 78 982.8
20260509165407 58 225 2.0 2.0 0.00 0.15 0.15 82 982.8
20260509164906 58 225 2.0 2.0 0.00 0.15 0.15 82 982.8
20260509164407 58 225 2.0 2.0 0.00 0.15 0.15 82 982.8
20260509163907 58 225 2.0 2.0 0.00 0.15 0.15 82 982.8
20260509163407 58 225 2.0 2.0 0.00 0.15 0.15 82 982.8
20260509162907 58 224 2.0 5.0 0.00 0.15 0.15 82 982.7
20260509162407 58 194 3.0 5.0 0.01 0.15 0.15 82 982.7
20260509161906 57 225 2.0 2.0 0.01 0.15 0.15 85 982.7
20260509161406 57 223 2.0 5.0 0.01 0.15 0.15 87 982.7
20260509160907 56 199 1.0 3.0 0.01 0.15 0.15 86 982.7
20260509160407 56 208 1.0 3.0 0.01 0.15 0.15 88 982.8
20260509155907 55 327 3.0 5.0 0.01 0.15 0.15 86 982.8
20260509155406 55 217 3.0 5.0 0.01 0.15 0.15 88 982.8
20260509154906 55 280 2.0 3.0 0.02 0.15 0.15 90 982.4
20260509154406 55 284 2.0 2.0 0.02 0.15 0.15 89 982.4
20260509153907 54 189 2.0 2.0 0.03 0.15 0.15 91 982.2
20260509153407 54 180 1.0 2.0 0.03 0.15 0.15 93 982.2
20260509152907 54 188 1.0 2.0 0.03 0.15 0.15 92 982.2
20260509152406 54 178 1.0 2.0 0.02 0.14 0.14 92 982.5
20260509151906 54 258 2.0 2.0 0.02 0.14 0.14 91 982.5
20260509151407 54 152 1.0 2.0 0.02 0.14 0.14 91 982.8
20260509150907 54 193 2.0 5.0 0.02 0.14 0.14 90 982.8
20260509145407 54 216 2.0 3.0 0.03 0.14 0.14 91 982.8
20260509144406 54 167 2.0 3.0 0.03 0.13 0.13 92 982.9
20260509143406 54 177 1.0 3.0 0.02 0.12 0.12 90 983.0
20260509142906 54 72 1.0 2.0 0.02 0.12 0.12 90 983.0
20260509142406 54 180 2.0 2.0 0.03 0.12 0.12 90 982.9
20260509141906 54 180 0.0 1.0 0.03 0.12 0.12 90 982.9
20260509141407 54 46 2.0 3.0 0.04 0.12 0.12 89 982.9
20260509140906 54 177 2.0 5.0 0.04 0.12 0.12 89 982.9
20260509135906 54 180 2.0 2.0 0.03 0.11 0.11 89 982.9
20260509135406 53 197 3.0 5.0 0.03 0.11 0.11 89 982.9
20260509134906 53 204 2.0 5.0 0.02 0.10 0.10 89 983.1
20260509134406 53 189 2.0 5.0 0.02 0.10 0.10 89 983.1
20260509133906 53 202 1.0 2.0 0.03 0.10 0.10 90 983.1
20260509133406 53 214 3.0 7.0 0.03 0.10 0.10 90 983.1
20260509132906 53 145 3.0 6.0 0.03 0.10 0.10 90 983.1
20260509131906 53 216 1.0 3.0 0.03 0.09 0.09 91 983.2
20260509131408 53 145 1.0 2.0 0.02 0.08 0.08 91 983.2
20260509130906 53 174 2.0 3.0 0.02 0.08 0.08 91 983.2
20260509130406 53 180 1.0 2.0 0.02 0.08 0.08 91 983.2
20260509125906 53 162 0.0 2.0 0.02 0.08 0.08 91 983.2
20260509125406 53 186 2.0 5.0 0.02 0.08 0.08 91 983.2
20260509124907 52 135 3.0 5.0 0.02 0.08 0.08 91 983.3
20260509123906 52 104 4.0 6.0 0.01 0.07 0.07 91 983.4
20260509123406 52 171 3.0 5.0 0.02 0.07 0.07 93 983.4
20260509122907 52 202 1.0 2.0 0.02 0.07 0.07 93 983.4
20260509122406 52 184 0.0 1.0 0.02 0.06 0.06 94 983.3
20260509121406 52 219 1.0 2.0 0.02 0.06 0.06 94 983.4
20260509120906 51 185 0.0 0.0 0.03 0.06 0.06 94 983.4
20260509120406 51 223 0.0 1.0 0.03 0.06 0.06 94 983.3
20260509115906 51 215 0.0 0.0 0.04 0.06 0.06 94 983.3
20260509114406 51 270 0.0 1.0 0.04 0.06 0.06 94 983.3
20260509113906 51 180 1.0 2.0 0.04 0.06 0.06 94 983.2
20260509113406 51 270 1.0 1.0 0.03 0.05 0.05 93 983.2
20260509112406 51 191 2.0 2.0 0.02 0.04 0.04 93 983.3
20260509111906 51 175 0.0 2.0 0.02 0.04 0.04 93 983.3
20260509111407 51 225 1.0 2.0 0.02 0.04 0.04 93 983.1
20260509110905 51 357 1.0 2.0 0.01 0.03 0.03 93 983.1
20260509110406 51 90 2.0 2.0 0.01 0.03 0.03 93 983.0
20260509105905 51 237 1.0 2.0 0.00 0.02 0.02 93 983.0
20260509105406 51 274 1.0 1.0 0.00 0.02 0.02 92 983.0
20260509104406 51 90 3.0 3.0 0.00 0.02 0.02 92 983.0
20260509103906 51 67 1.0 2.0 0.00 0.02 0.02 92 983.1
20260509103406 51 45 1.0 3.0 0.01 0.02 0.02 93 983.1
20260509102907 51 107 2.0 6.0 0.01 0.02 0.02 93 983.1
20260509101906 51 215 2.0 2.0 0.01 0.02 0.02 93 983.0
20260509101406 51 15 2.0 2.0 0.01 0.02 0.02 94 983.2
20260509100906 50 225 2.0 3.0 0.01 0.02 0.02 94 983.2
20260509095906 50 167 3.0 3.0 0.02 0.02 0.02 95 983.2
20260509095406 50 224 1.0 2.0 0.02 0.02 0.02 95 983.2
20260509094906 50 125 2.0 2.0 0.02 0.02 0.02 95 983.3
20260509094406 50 64 1.0 2.0 0.02 0.02 0.02 95 983.3
20260509093906 50 227 0.0 2.0 0.02 0.02 0.02 95 983.4
20260509093406 50 218 1.0 2.0 0.01 0.01 0.01 95 983.4
20260509092906 50 308 1.0 2.0 0.01 0.01 0.01 95 983.4
20260509092406 50 80 3.0 3.0 0.01 0.01 0.01 95 983.4
20260509091406 50 286 2.0 2.0 0.01 0.01 0.01 95 983.4
20260509090906 50 226 1.0 2.0 0.01 0.01 0.01 95 983.4
20260509090406 50 279 2.0 3.0 0.00 0.00 0.00 95 983.5
20260509085905 50 225 1.0 1.0 0.00 0.00 0.00 95 983.6
20260509084906 50 235 0.0 1.0 0.00 0.00 0.00 95 983.5
20260509083905 50 270 1.0 2.0 0.00 0.00 0.00 95 983.4
20260509083405 50 287 2.0 2.0 0.00 0.00 0.00 95 983.4
20260509082906 50 202 0.0 1.0 0.00 0.00 0.00 95 983.4
20260509082405 50 68 1.0 1.0 0.00 0.00 0.00 95 983.2
20260509081405 50 251 1.0 2.0 0.00 0.00 0.00 95 983.3
20260509080905 50 221 2.0 2.0 0.00 0.00 0.00 95 983.3
20260509075905 50 142 3.0 5.0 0.00 0.00 0.00 95 983.1
20260509075406 50 180 2.0 3.0 0.00 0.00 0.00 94 983.1
20260509074405 49 225 0.0 1.0 0.00 0.00 0.00 94 982.7
20260509073905 49 225 0.0 1.0 0.00 0.00 0.00 94 982.5
20260509073406 49 270 2.0 2.0 0.00 0.00 0.00 94 982.5
20260509072905 49 225 0.0 0.0 0.00 0.00 0.00 94 982.5
20260509071905 49 204 0.0 0.0 0.00 0.00 0.00 94 982.6
20260509071406 49 244 0.0 0.0 0.00 0.00 0.00 94 982.7
20260509070905 49 248 0.0 0.0 0.00 0.00 0.00 94 982.7
20260509065905 49 202 0.0 0.0 0.00 0.00 0.00 94 982.8
20260509065405 49 248 0.0 0.0 0.00 0.00 0.00 94 982.8
20260509064905 49 225 0.0 0.0 0.00 0.00 0.00 94 983.1
20260509064405 49 199 0.0 0.0 0.00 0.00 0.00 94 983.1
20260509063906 49 235 0.0 0.0 0.00 0.00 0.00 94 983.2
20260509062905 49 267 0.0 0.0 0.00 0.00 0.00 94 983.2
20260509062405 49 235 0.0 0.0 0.00 0.00 0.00 94 983.4
20260509061906 49 225 0.0 0.0 0.00 0.00 0.00 94 983.4
20260509061404 49 270 0.0 0.0 0.00 0.00 0.00 94 983.7
20260509060904 50 225 0.0 0.0 0.00 0.00 0.00 94 983.7
20260509060406 50 219 0.0 0.0 0.00 0.00 0.00 94 983.9
20260509055906 50 159 0.0 0.0 0.00 0.00 0.00 94 983.9
20260509055405 50 233 1.0 2.0 0.00 0.00 0.00 94 983.9
20260509054905 50 270 2.0 2.0 0.00 0.00 0.00 94 983.9
20260509054405 50 287 1.0 1.0 0.00 0.00 0.00 93 983.9
20260509053906 50 248 0.0 0.0 0.00 0.00 0.00 93 984.0
20260509053405 50 229 0.0 1.0 0.00 0.00 0.00 93 984.0
20260509052904 50 270 1.0 1.0 0.00 0.00 0.00 93 984.0
20260509052404 50 225 0.0 0.0 0.00 0.00 0.00 93 984.0
20260509051905 50 163 0.0 0.0 0.00 0.00 0.00 93 984.0
20260509051405 50 226 0.0 0.0 0.00 0.00 0.00 93 984.1
20260509050405 50 207 0.0 0.0 0.00 0.00 0.00 93 984.0
20260509045405 50 260 0.0 0.0 0.00 0.00 0.00 93 984.0
20260509044904 50 235 0.0 0.0 0.00 0.00 0.00 93 984.0
20260509044404 50 270 0.0 0.0 0.00 0.00 0.00 93 984.0
20260509043905 50 270 0.0 0.0 0.00 0.00 0.00 92 984.2
20260509043406 50 270 0.0 0.0 0.00 0.00 0.00 92 984.2
20260509042905 50 225 0.0 0.0 0.00 0.00 0.00 92 984.2
20260509042406 50 271 0.0 0.0 0.00 0.00 0.00 92 984.4
20260509041905 50 248 0.0 0.0 0.00 0.00 0.00 92 984.4
20260509041405 50 269 0.0 0.0 0.00 0.00 0.00 92 984.5
20260509040905 50 270 0.0 0.0 0.00 0.00 0.00 92 984.5
20260509040405 50 265 0.0 0.0 0.00 0.00 0.00 91 984.6
20260509035904 51 270 0.0 0.0 0.00 0.00 0.00 91 984.7
20260509035405 51 180 0.0 0.0 0.00 0.00 0.00 91 984.7
20260509034905 51 272 0.0 0.0 0.00 0.00 0.00 91 984.9
20260509034405 51 270 0.0 0.0 0.00 0.00 0.00 91 984.9
20260509033904 51 270 0.0 0.0 0.00 0.00 0.00 91 985.1
20260509033405 51 202 0.0 1.0 0.00 0.00 0.00 91 985.1
20260509032904 51 270 1.0 1.0 0.00 0.00 0.00 90 985.1
20260509032405 51 225 0.0 0.0 0.00 0.00 0.00 89 985.4
20260509031904 51 244 0.0 0.0 0.00 0.00 0.00 89 985.4
20260509031404 51 224 0.0 0.0 0.00 0.00 0.00 89 985.4
20260509030905 51 202 0.0 0.0 0.00 0.00 0.00 89 985.4
20260509025905 51 158 0.0 1.0 0.00 0.00 0.00 89 985.5
20260509025405 51 270 2.0 3.0 0.00 0.00 0.00 89 985.5
20260509024905 51 245 2.0 5.0 0.00 0.00 0.00 89 985.6
20260509024405 51 264 3.0 5.0 0.00 0.00 0.00 89 985.6
20260509023905 51 125 1.0 2.0 0.00 0.00 0.00 88 985.7
20260509023405 51 201 2.0 2.0 0.00 0.00 0.00 88 985.7
20260509022905 51 309 1.0 2.0 0.00 0.00 0.00 88 985.7
20260509022404 51 284 1.0 2.0 0.00 0.00 0.00 88 985.5
20260509021904 52 270 0.0 0.0 0.00 0.00 0.00 87 985.5
20260509021405 52 260 0.0 0.0 0.00 0.00 0.00 86 985.2
20260509020404 52 202 0.0 1.0 0.00 0.00 0.00 85 985.1
20260509015905 52 239 1.0 1.0 0.00 0.00 0.00 85 985.1
20260509015404 52 160 0.0 0.0 0.00 0.00 0.00 84 985.1
20260509014905 52 238 1.0 2.0 0.00 0.00 0.00 84 984.8
20260509014404 52 239 2.0 2.0 0.00 0.00 0.00 83 984.8
20260509013905 52 113 1.0 1.0 0.00 0.00 0.00 82 984.7
20260509013404 52 292 1.0 2.0 0.00 0.00 0.00 82 984.7
20260509012905 53 202 0.0 1.0 0.00 0.00 0.00 82 984.6
20260509012405 53 270 2.0 2.0 0.00 0.00 0.00 81 984.5
20260509011905 53 188 0.0 0.0 0.00 0.00 0.00 79 984.5
20260509011404 53 202 1.0 2.0 0.00 0.00 0.00 79 984.1
20260509010904 53 283 2.0 2.0 0.00 0.00 0.00 77 984.1
20260509010404 53 273 1.0 1.0 0.00 0.00 0.00 78 984.1
20260509005904 53 233 0.0 1.0 0.00 0.00 0.00 77 984.1
20260509004905 53 240 1.0 2.0 0.00 0.00 0.00 77 984.0
20260509004404 53 208 0.0 0.0 0.00 0.00 0.00 75 984.0
20260509003904 53 225 1.0 1.0 0.00 0.00 0.00 74 984.1
20260509002905 53 306 2.0 2.0 0.00 0.00 0.00 74 984.1
20260509002404 54 281 1.0 1.0 0.00 0.00 0.00 74 984.1
20260509001404 54 277 2.0 2.0 0.00 0.00 0.00 72 984.1
20260509000904 55 225 1.0 1.0 0.00 0.00 0.00 71 984.1
20260508235905 55 292 2.0 2.0 0.00 0.00 0.00 71 984.2
20260508235405 55 292 1.0 2.0 0.00 0.00 0.00 72 984.2
20260508234907 55 277 1.0 1.0 0.00 0.00 0.00 71 984.1
20260508234407 56 235 1.0 1.0 0.00 0.00 0.00 71 984.1
20260508233907 56 206 0.0 0.0 0.00 0.00 0.00 68 984.2
20260508233408 56 198 0.0 0.0 0.00 0.00 0.00 68 984.2
20260508232907 56 152 1.0 2.0 0.00 0.00 0.00 71 984.2
20260508232407 56 274 2.0 2.0 0.00 0.00 0.00 70 984.2
20260508231907 56 270 2.0 2.0 0.00 0.00 0.00 69 984.2
20260508231407 56 302 2.0 2.0 0.00 0.00 0.00 70 984.4
20260508230908 56 276 1.0 2.0 0.00 0.00 0.00 70 984.4
20260508230408 57 270 0.0 1.0 0.00 0.00 0.00 68 984.4
20260508225907 57 202 0.0 0.0 0.00 0.00 0.00 68 984.4
20260508225407 57 180 0.0 0.0 0.00 0.00 0.00 68 984.4
20260508224908 57 206 1.0 1.0 0.00 0.00 0.00 68 984.3
20260508224407 57 241 0.0 1.0 0.00 0.00 0.00 68 984.3
20260508223907 57 289 2.0 2.0 0.00 0.00 0.00 68 984.3
20260508223408 57 292 2.0 2.0 0.00 0.00 0.00 68 984.3
20260508222907 57 268 0.0 2.0 0.00 0.00 0.00 67 984.3
20260508222407 57 274 2.0 2.0 0.00 0.00 0.00 67 984.0
20260508221908 58 291 2.0 2.0 0.00 0.00 0.00 65 984.0
20260508221407 58 292 2.0 2.0 0.00 0.00 0.00 64 984.2
20260508220907 59 270 1.0 2.0 0.00 0.00 0.00 61 984.2
20260508220408 59 292 2.0 2.0 0.00 0.00 0.00 60 984.2
20260508215907 60 192 1.0 2.0 0.00 0.00 0.00 59 984.2
20260508215408 60 292 2.0 2.0 0.00 0.00 0.00 58 984.2
20260508214907 59 219 0.0 1.0 0.00 0.00 0.00 56 984.4
20260508213407 60 202 0.0 0.0 0.00 0.00 0.00 57 984.5
20260508212907 60 201 1.0 1.0 0.00 0.00 0.00 57 984.5
20260508211907 60 90 2.0 2.0 0.00 0.00 0.00 57 984.7
20260508211408 59 217 2.0 2.0 0.00 0.00 0.00 59 984.9
20260508210408 58 248 0.0 1.0 0.00 0.00 0.00 66 984.8
20260508205907 57 270 1.0 2.0 0.00 0.00 0.00 67 984.8
20260508205407 57 275 1.0 2.0 0.00 0.00 0.00 71 984.8
20260508204907 57 245 1.0 2.0 0.00 0.00 0.00 71 985.0
20260508204407 57 292 2.0 2.0 0.00 0.00 0.00 68 985.0
20260508203907 57 297 2.0 3.0 0.00 0.00 0.00 66 985.1
20260508203407 57 315 3.0 3.0 0.00 0.00 0.00 69 985.1
20260508202908 57 278 2.0 2.0 0.00 0.00 0.00 67 985.1
20260508202408 57 273 2.0 2.0 0.00 0.00 0.00 67 985.5
20260508201907 57 251 1.0 2.0 0.00 0.00 0.00 69 985.5
20260508201406 58 279 2.0 2.0 0.00 0.00 0.00 66 985.8